Regional Weather Roundup
Issued by NWS Sterling, VA

Current Version | Previous Version | Text Only | Print | Product List | Glossary On
Versions: 1 2 3 4 5 6 7 8 9 10 11 12 13 14 15 16 17 18 19 20 21 22 23 24 25 26 27
000
ASUS41 KLWX 301013
RWRLWX

REGIONAL WEATHER ROUNDUP
NATIONAL WEATHER SERVICE BALTIMORE MD/WASHINGTON DC
600 AM EDT FRI SEP 30 2022

Note: "FAIR" indicates few or no clouds below 12,000 feet
with no significant weather and/or obstructions to visibility.
 TC=TEMPERATURE CELSIUS

 * =Non NWS site. Station does not report precipitation (e.g. rain,
    snow, etc.), thunder, or fog.

DCZ001-MDZ009-015-VAZ040>042-051-053>054-301100-
WASHINGTON METRO

CITY           SKY/WX    TMP DP  RH WIND       PRES   REMARKS
WASHINGTON NAT CLOUDY    56  45  66 N15       30.28R
DULLES         CLOUDY    52  44  74 N5        30.29R
ANDREWS AFB    CLOUDY    52  45  77 N10       30.24R
FT BELVOIR     CLOUDY    55  45  69 N3        30.25R
QUANTICO       CLOUDY    56  32  40 N8        30.26S
COLLEGE PARK*  CLOUDY    53  45  75 N7        30.28S
LEESBURG*      CLOUDY    50  45  81 NE8       30.31R
MANASSAS*      CLOUDY    51  45  79 N12       30.28R
GAITHERSBURG*  CLOUDY    50  44  80 VRB5      30.30R

$$

MDZ006>007-011-014-301100-
BALTIMORE METRO

CITY           SKY/WX    TMP DP  RH WIND       PRES   REMARKS
BWI AIRPORT    CLOUDY    56  44  64 NE8       30.28R
MARTIN STATE   CLEAR     54  45  71 N3        30.30
ANNAPOLIS      CLOUDY    60  49  66 NE14G20   30.26R
ABERDEEN*      CLOUDY    53  45  73 NE7       30.27
FORT MEADE*    CLOUDY    52  46  82 NE3       30.30R

$$

MDZ012-015-019>023-301100-
MARYLAND EASTERN SHORE

CITY           SKY/WX    TMP DP  RH WIND       PRES   REMARKS
OCEAN CITY     CLOUDY    65  55  70 NE17G26   30.19S
SALISBURY      CLOUDY    60  54  80 N8        30.20R
EASTON*        CLEAR     55  54  94 N13       30.28

$$

MDZ017>025-301100-
SOUTHERN MARYLAND

CITY           SKY/WX    TMP DP  RH WIND       PRES   REMARKS
PATUXENT RIVER CLOUDY    62  52  69 NE15G21   30.21S
ST INIGOES     CLOUDY    64  52  64 NE8G22    30.20S
LEONARDTOWN*   CLOUDY    61  54  77 NE5       30.24R

$$

MDZ003>005-301100-
NORTH CENTRAL MARYLAND

CITY           SKY/WX    TMP DP  RH WIND       PRES   REMARKS
FREDERICK*     NOT AVBL
HAGERSTOWN APT MOCLDY    47  42  83 N7        30.31R
WESTMINSTER*   MOCLDY    50  45  81 NE3       30.30R

$$

MDZ501>502-301100-
WESTERN MARYLAND

CITY           SKY/WX    TMP DP  RH WIND       PRES   REMARKS
OAKLAND*       NOT AVBL
CUMBERLAND*    NOT AVBL

$$

VAZ025>031-301100-
SHENANDOAH VALLEY

CITY           SKY/WX    TMP DP  RH WIND       PRES   REMARKS
WINCHESTER*    MOCLDY    43  41  93 CALM      30.29S
FRONT ROYAL*   CLOUDY    45  45 100 CALM      30.30R
LURAY*         MOCLDY    46  45  93 NE9       30.29R
NEW MARKET*    MOCLDY    46  46  97 CALM      30.29R
STAUNTON*      MOCLDY    46  44  90 N7        30.30R
WAYNESBORO*    MOCLDY    46  45  96 MISG      30.28R

$$

WVZ021-048>050-054>055-301100-
EASTERN WEST VIRGINIA PANHANDLE

CITY           SKY/WX    TMP DP  RH WIND       PRES   REMARKS
MARTINSBURG    MOCLDY    49  42  77 N7        30.30R
PETERSBURG*    MOCLDY    43  43 100 CALM      30.32S FOG

$$

VAZ036>039-050-301100-
CENTRAL FOOTHILLS

CITY           SKY/WX    TMP DP  RH WIND       PRES   REMARKS
CHARLOTTESVILL CLOUDY    55  44  66 VRB5      30.25S
CULPEPER*      CLOUDY    50  45  80 N6        30.28S
ORANGE*        CLOUDY    50  45  81 N8        30.27S
GORDONSVILLE*  NOT AVBL
WARRENTON*     NOT AVBL

$$

VAZ055>057-301100-
NORTH AND CENTRAL PIEDMONT

CITY           SKY/WX    TMP DP  RH WIND       PRES   REMARKS
FREDERICKSBRG* CLOUDY    54  46  73 N8        30.23S
STAFFORD*      CLOUDY    55  46  71 N8        30.28S

$$

NCZ024-NYZ072-PAZ021-071-VAZ022-071-301100-
OTHER REGIONAL OBSERVATIONS

CITY           SKY/WX    TMP DP  RH WIND       PRES   REMARKS
NEW YORK CITY  MOCLDY    54  41  61 NE8       30.36R
PHILADELPHIA   MOCLDY    56  46  69 NE8       30.31R
PITTSBURGH     PTCLDY    43  40  89 NE7       30.31R
ROANOKE        CLOUDY    52  44  74 N6        30.24R
RICHMOND       CLOUDY    57  51  80 N16       30.17F
RALEIGH        LGT RAIN  56  53  90 NE14G25   30.04F

$$

ANZ530>537-301100-
MARINE OBSERVATIONS

STATION/POSITION TIME  TEMP    WIND        PRES
                       AIR SEA DIR/SP/G
                 (UTC) (F)     (DEG/KT/KT) (MB)
THOMAS PT LIGHT  1000   58      10/ 21/ 24 1025.0R
TOLCHESTER       0930   56 66   40/  2/  6 1025.2R
GOOSES REEF      0948   58 70   30/ 23/ 31 1024.2R
COVE POINT       0930   59      20/ 19/ 25 1023.4F
BALT HARBOR      0930   56 72   50/ 11/ 13 1024.9R
BALT KEY BRIDGE  0930           40/ 10/ 13 1025.1R
ANNAPOLIS USNA   0930   60 72   10/ 10/ 16 1024.4R
ANNAPOLIS CBIBS  0948   58 68   40/ 19/ 27 1024.2R
WASH DC CHANNEL  0930   56 69   20/  3/  9 1024.7R
DAHLGREN         0930   55 67  320/  2/  4 1023.0R
LEWISETTA        0930   62 67   60/ 12/ 18 1022.5S
SOLOMONS ISLAND  0930   60 71   30/ 11/ 18 1021.6F
PINEY POINT      0930           60/  8/ 14   N/A
POTOMAC BUOY     0948   60 69   30/ 19/ 23   N/A
CAMBRIDGE PIER   0930   58 67   40/ 12/ 15 1023.4R
BISHOPS HEAD     0930   59 63   30/ 14/ 20 1022.3F
CHESAPEAKE CITY  0930   54 69   30/  3/  6 1025.7R

$$




USA.gov is the U.S. government's official web portal to all federal, state and local government web resources and services.